Theta_e
328 327 329 329 331 332 334 335 336 336 337 337 335 335 336 337 340 340 342 341 336 339 337 338 336 344 337 336 334 332 334 332
324 325 328 328 329 330 332 333 333 333 334 336 334 334 334 334 335 336 337 335 339 337 334 331 331 332 333 332 330 329 329 330
324 325 328 328 327 328 330 330 331 331 333 332 332 333 334 334 334 337 337 337 336 335 336 333 332 333 334 332 332 330 329 329
323 320 322 325 326 326 329 327 328 329 331 329 331 333 334 333 335 338 339 340 337 337 337 337 335 336 334 333 330 329 327 326
322 321 320 322 325 327 327 327 330 330 330 328 329 332 333 333 336 338 339 340 339 338 336 335 336 340 330 328 329 326 326 328
324 321 322 321 326 326 328 332 331 329 330 331 332 330 334 333 335 339 343 341 340 339 337 338 337 338 328 329 327 326 329 329
323 323 321 323 326 327 327 330 329 330 329 331 330 332 330 331 334 340 340 344 344 340 339 338 337 336 331 331 329 326 325 327
324 323 323 323 326 328 329 330 330 330 330 331 330 329 334 333 334 339 340 341 344 341 339 338 338 336 334 330 329 331 329 328
324 324 324 323 326 326 329 329 329 332 330 329 329 328 329 333 334 339 341 342 342 341 339 337 338 331 330 333 330 328 328 330
322 324 323 323 326 326 327 331 331 333 333 330 329 329 329 333 333 335 342 342 342 342 341 337 337 335 332 333 331 331 330 332
322 324 323 324 326 327 327 330 333 333 335 331 332 334 333 331 332 333 335 343 344 343 343 340 337 339 334 335 333 331 328 329
323 324 324 324 325 329 329 329 334 335 336 334 332 331 330 335 333 334 336 340 342 343 342 340 338 340 339 337 337 334 332 328
323 324 326 327 327 330 330 329 334 336 337 336 334 333 333 333 336 333 335 335 339 339 336 334 340 338 337 337 336 334 333 330
325 326 327 328 330 330 333 330 331 337 338 337 336 336 337 337 337 336 335 336 339 339 337 335 339 340 338 336 336 335 334 334
330 326 325 326 328 331 335 335 332 337 338 339 339 339 339 336 336 336 336 337 336 338 340 338 338 339 338 336 335 335 333 331
333 334 334 334 333 331 334 338 336 337 339 339 340 339 340 338 339 339 339 339 338 338 340 339 338 338 336 337 335 333 333 332
326 330 332 331 333 336 337 336 339 340 341 340 340 342 340 338 338 337 335 335 336 337 338 334 333 333 330 334 332 332 330 327
318 324 325 324 336 337 337 340 339 339 342 341 340 337 336 334 334 330 330 330 331 336 335 332 334 335 332 333 329 329 325 319
318 320 322 328 335 335 334 334 333 333 333 332 333 333 333 333 331 331 330 334 336 334 334 334 333 331 330 327 325 320 315 314
321 325 330 333 331 332 332 333 332 332 333 333 329 329 330 330 331 333 335 334 334 333 329 328 328 322 319 318 318 316 314 314
Wind_Speed
19 16 18 19 15 11 13 13 12 10 7 5 3 3 4 4 6 6 4 4 3 3 2 4 2 5 3 4 4 4 5 4
18 17 15 13 15 16 14 12 12 12 5 6 6 5 5 5 6 6 5 3 4 5 4 5 4 3 4 4 3 4 5 6
9 19 17 16 15 13 15 13 13 12 10 7 6 7 7 7 5 7 7 4 5 4 4 4 4 4 4 4 4 5 3 5
7 8 15 16 16 16 16 13 14 12 11 10 8 7 8 5 6 7 9 5 5 4 4 4 4 4 5 5 5 5 4 3
10 11 10 16 16 18 16 14 15 15 14 11 8 7 6 5 7 6 7 7 7 7 4 4 4 4 4 3 3 3 1 2
10 9 11 10 13 18 16 14 14 14 12 9 8 5 8 6 6 6 8 7 7 6 4 4 5 3 4 3 4 2 2 2
11 11 10 14 14 16 14 14 15 14 8 7 7 7 5 5 5 6 8 7 7 6 5 4 4 3 4 3 3 3 2 2
16 13 14 13 15 16 18 13 15 13 8 5 4 4 4 4 5 5 8 6 7 6 4 5 5 4 3 3 4 3 3 3
16 16 15 14 17 16 16 15 11 9 4 5 3 6 3 2 4 7 7 6 7 7 5 5 5 5 6 6 4 4 3 1
15 16 14 16 19 19 18 19 15 13 10 7 4 4 3 3 3 5 7 8 7 6 6 5 5 3 4 5 5 3 2 3
19 17 21 17 19 20 20 20 19 17 15 5 3 3 2 2 3 4 6 8 10 9 6 6 5 4 5 5 5 6 4 1
22 21 19 21 23 18 19 19 17 16 16 14 16 10 9 8 7 4 4 5 3 6 5 3 5 6 6 6 5 4 4 4
24 24 24 24 19 19 15 14 14 15 15 15 13 12 9 5 5 7 3 3 4 4 2 5 5 4 5 0 6 6 1 3
24 25 23 19 15 13 15 16 16 17 16 15 16 17 12 8 5 5 5 5 4 4 11 5 6 6 4 2 3 3 3 1
19 10 8 11 13 16 14 17 20 18 18 17 17 14 13 6 5 4 5 2 2 8 7 6 8 6 6 3 4 4 3 4
18 16 15 15 17 11 10 15 18 19 18 19 12 7 6 7 11 10 8 7 6 7 5 6 6 2 5 4 3 4 5 4
15 15 15 15 14 15 22 13 16 16 11 7 8 9 11 9 10 7 6 4 1 2 4 2 2 3 3 5 4 5 3 2
4 6 5 5 11 14 18 13 8 7 8 8 10 10 9 7 5 6 5 2 2 3 3 4 1 3 7 5 5 3 5 3
4 1 3 8 15 16 15 11 14 12 14 15 15 16 15 12 5 6 1 2 6 8 8 8 7 7 4 7 4 4 6 6
10 9 9 15 13 13 11 9 13 8 7 9 8 15 7 8 5 4 7 12 11 10 12 10 7 8 8 7 8 6 7 6
Wind_Direction
159 168 170 181 181 173 179 175 177 174 184 175 180 181 191 203 205 205 217 208 241 219 209 255 242 233 231 246 270 294 306 310
161 174 182 172 181 183 181 182 175 183 165 179 188 186 191 201 210 199 208 205 207 227 198 221 235 231 242 252 255 239 266 270
174 179 182 177 181 184 186 177 180 187 172 183 189 204 195 203 198 199 204 202 211 215 216 213 230 214 220 238 252 262 257 245
189 171 177 180 181 185 184 180 183 182 183 188 195 200 204 186 213 212 198 199 193 185 225 214 224 217 227 202 206 213 217 207
190 191 175 176 188 186 182 180 180 184 192 188 195 206 202 189 212 205 187 190 179 171 188 235 220 223 169 179 206 208 251 198
204 194 184 177 172 183 184 183 177 182 189 183 195 200 206 202 201 189 190 187 182 183 184 211 219 171 192 204 188 183 241 255
214 202 193 183 178 177 181 176 179 180 185 176 171 179 187 193 188 180 188 193 188 184 196 221 234 222 185 208 249 148 204 232
213 208 195 186 185 182 182 184 182 179 174 170 179 178 196 198 202 188 189 193 193 189 202 205 204 214 187 196 203 215 201 213
210 209 204 187 188 181 187 183 189 172 162 177 183 196 189 191 199 196 196 208 200 195 203 205 211 184 200 196 169 193 248 159
213 211 205 194 191 192 187 190 181 187 189 190 171 159 197 166 181 205 191 200 214 198 206 211 215 218 186 205 177 171 210 181
219 209 206 199 198 197 197 193 186 186 187 151 87 89 50 158 222 215 201 198 201 209 197 194 195 237 221 217 201 183 185 215
214 216 207 208 208 195 198 195 192 193 181 180 188 190 193 212 209 219 198 196 76 75 34 337 267 224 211 208 186 200 181 187
214 214 212 210 204 201 197 194 194 192 190 195 192 193 190 169 170 199 127 91 147 116 143 243 260 278 269 33 354 279 320 115
214 217 215 216 208 200 192 192 195 194 192 194 198 199 187 187 162 139 159 147 147 138 258 272 263 209 211 161 176 333 9 194
40 10 296 250 215 206 195 196 202 191 191 198 197 198 205 182 117 100 76 65 114 207 226 274 265 224 157 146 163 163 243 206
61 50 44 48 32 347 250 215 200 199 195 198 189 168 136 119 125 138 139 190 174 192 188 218 285 36 84 86 171 144 188 219
65 68 62 70 67 47 9 261 234 215 210 166 149 140 129 146 150 116 111 123 135 223 139 199 242 250 123 124 134 140 171 201
60 94 103 55 60 53 58 357 54 45 37 55 48 51 63 50 37 60 113 261 208 170 126 114 243 93 125 124 80 118 149 127
284 30 54 79 66 57 53 53 66 66 70 72 73 64 49 15 1 299 93 88 74 103 104 87 86 111 71 90 96 130 94 95
354 16 46 63 58 63 63 70 89 83 75 86 112 129 158 121 283 21 82 78 78 79 91 90 105 102 119 137 144 133 119 106